Preview of NWS' New Version of Forecast
This preview is not operational and should not be used for support decisions.

Regional Weather Roundup (RWR)

Issued by National Weather Service (NWS)

                            
000
ASUS46 KSEW 211510
RWRWA 

WASHINGTON REGIONAL WEATHER ROUNDUP
NATIONAL WEATHER SERVICE SEATTLE WA
800 AM PDT SUN APR 21 2019

NOTE:"FAIR" INDICATES FEW OR NO CLOUDS BELOW 12,000 FEET WITH NO 
SIGNIFICANT WEATHER AND/OR OBSTRUCTIONS TO VISIBILITY.

WAZ507-509-555>559-211600-
SEATTLE, TACOMA, EVERETT, AND VICINITY
  
CITY           SKY/WX    TMP DP  RH WIND       PRES   REMARKS
EVERETT        CLOUDY    47  44  90 S10       30.28R                  
BOEING FIELD   PTSUNNY   49  42  77 S8        30.29R                  
RENTON         MOSUNNY   50  43  77 SE7       30.29R                  
SEATAC AIRPORT MOSUNNY   49  42  77 S7        30.28R                  
JBLM-MCCHORD   SUNNY     47  47 100 SW6       30.29R                  
PUYALLUP       PTSUNNY   48  46  93 CALM      30.29S                  
BREMERTON      CLOUDY    46  44  93 SW7       30.29R                  
JBLM-FT LEWIS  MOSUNNY   47  47  99 S8        30.29R                  
TACOMA NARROWS MOSUNNY   48  43  82 S8        30.30R                  
$$
 
WAZ001-503-506-510-514-515-211600-
NORTH INTERIOR
  
CITY           SKY/WX    TMP DP  RH WIND       PRES   REMARKS
BELLINGHAM     MOSUNNY   51  43  74 S10G20    30.25R                  
FRIDAY HARBOR  MOSUNNY   50  43  77 SW10      30.27R                  
EASTSOUND      MOSUNNY   50  45  81 S12G17    30.24R                  
PORT ANGELES   MOSUNNY   48  42  80 W6        30.29R                  
EDIZ HOOK      FAIR      48  43  81 W12       30.29R                  
PORT TOWNSEND  CLOUDY    45  45 100 CALM      30.29R                  
NAS WHIDBEY    PTSUNNY   51  45  79 E3        30.32R                  
ARLINGTON      CLOUDY    43  43 100 CALM      30.31R FOG              
BURLINGTON     CLOUDY    46  46 100 SE3       30.29R                  
$$
 
WAZ020-022-039-040-504-511-512-211600-
SOUTHWEST INTERIOR
  
CITY           SKY/WX    TMP DP  RH WIND       PRES   REMARKS
SHELTON        PTSUNNY   49  44  83 SW10      30.27R                  
OLYMPIA        MOSUNNY   48  42  80 W3        30.29R                  
CHEHALIS       CLOUDY    45  43  93 S5        30.31R                  
KELSO          CLOUDY    48  44  86 S3        30.32R                  
VANCOUVER      CLOUDY    50  41  71 NE5       30.31S                  
SCAPPOOSE, OR  MOSUNNY   48  44  86 CALM      30.30F                  
PORTLAND, OR   PTSUNNY   50  42  74 CALM      30.31S                  
$$
 
WAZ021-516-517-211600-
WASHINGTON COAST
  
CITY           SKY/WX    TMP DP  RH WIND       PRES   REMARKS
FORKS          CLOUDY    44  43  96 CALM      30.31R                  
HOQUIAM        CLOUDY    50  43  77 W8        30.31R                  
ASTORIA, OR    CLOUDY    49  41  74 W3        30.31R                  
$$
 
WAZ019-023-024-040-567>569-211600-
CASCADE MOUNTAINS AND COLUMBIA GORGE
  
CITY           SKY/WX    TMP DP  RH WIND       PRES   REMARKS
STAMPEDE PASS  FOG       37  35  92 VRB3      30.20S VSB<1/4          
TROUTDALE, OR  CLOUDY    50  41  71 VRB3      30.31S                  
HOOD RIVER, OR SUNNY     50  41  71 MISG      30.25R                  
THE DALLES, OR SUNNY     52  42  69 NW16G22   30.23R                  
$$

WAZ026-027-041>044-520-521-211600-
EAST SLOPES
  
CITY           SKY/WX    TMP DP  RH WIND       PRES   REMARKS
OMAK           SUNNY     47  26  44 NE3       30.19R                  
WENATCHEE      SUNNY     51  36  56 NW10      30.18R                  
ELLENSBURG     SUNNY     51  37  58 NW16G29   30.18R                  
YAKIMA         SUNNY     49  34  56 W3        30.19R                  
SUNNYSIDE ARPT SUNNY     46  38  75 CALM      30.19R                  
YAKIMA TC      FAIR      50  37  62 E7        30.18R                  
$$

WAZ028-034-035-211600-
COLUMBIA BASIN
  
CITY           SKY/WX    TMP DP  RH WIND       PRES   REMARKS
EPHRATA        SUNNY     54  30  40 NW13      30.14R                  
MOSES LAKE     SUNNY     51  29  42 CALM      30.16R                  
PASCO          SUNNY     49  40  71 CALM      30.19R                  
RICHLAND ARPT  SUNNY     54  38  55 CALM      30.19                   
HERMISTON, OR  SUNNY     52  42  69 SW8       30.19R                  
$$

WAZ036>038-211600-
NORTHEAST WASHINGTON
  
CITY           SKY/WX    TMP DP  RH WIND       PRES   REMARKS
SPOKANE GEIGER MOSUNNY   47  35  63 NE6       30.13R                  
SPOKANE FELTS  MOSUNNY   41  39  93 CALM      30.14R                  
FAIRCHILD AFB  SUNNY     46  35  64 E6        30.12R                  
COEURDALENE,ID SUNNY     43  39  86 NE9       30.14R                  
DEER PARK      SUNNY     48  30  49 N12       30.13R                  
$$

WAZ029>033-211600-
SOUTHEAST WASHINGTON
  
CITY           SKY/WX    TMP DP  RH WIND       PRES   REMARKS
PULLMAN        SUNNY     45  40  82 W12       30.14R                  
LEWISTON, ID   SUNNY     50  41  71 VRB6      30.13R                  
WALLA WALLA    SUNNY     50  40  68 S13       30.18R                  
PENDLETON, OR  SUNNY     49  39  68 W6        30.19R                  
$$